Voltar ao catálogo

COSMOS 1579 COOLANT

LostLEO
NORAD 26634·DEBRIS·🇷🇺 Russia

Lançado Jun 29, 1984 de Baikonur Cosmodrome

Loading…

Próximas Passagens (próximas 24 horas)

TLE

ObsoletoSource: Space-Track

Época: Mar 11, 2019, 01:55 UTC

1 26634U 84069R   19070.08010605 -.00000091  00000-0  00000+0 0  9995
2 26634  64.9771 319.8195 0057547 199.0543 160.8377 13.91218533956730

Acompanhe COSMOS 1579 COOLANT em tempo real com AllMySat

Download on the App Store